Waarnemingen

Advertentie
Mijn weer
Badajoz/Talavera La Real, Spanje (8330): temperatuur & dauwpunt: 10.12.2017 12:00:00 - 16.12.2017 12:00:00 (CET)Badajoz/Talavera La Real, Spanje (8330): windsnelheid & windstoten: 10.12.2017 12:00:00 - 16.12.2017 12:00:00 (CET)Badajoz/Talavera La Real, Spanje (8330): windrichting: 10.12.2017 12:00:00 - 16.12.2017 12:00:00 (CET)Badajoz/Talavera La Real, Spanje (8330): luchtdruk: 10.12.2017 12:00:00 - 16.12.2017 12:00:00 (CET)Badajoz/Talavera La Real, Spanje (8330): zicht: 10.12.2017 12:00:00 - 16.12.2017 12:00:00 (CET)Badajoz/Talavera La Real, Spanje (8330): neerslag: 10.12.2017 12:00:00 - 16.12.2017 12:00:00 (CET)
Datum & Tijd tt [°C] td [°C] ff [km/u] ff [kn] fx [km/u] fx [kn] dd ppp [hPa] vv [km] rr [mm]
16.12.2017 12:00:00 - - - - - - - - - -
16.12.2017 11:00:00 7,7 2,8 4 2 - - W 1023,8 - 0,0
16.12.2017 10:00:00 4,8 2,2 4 2 - - W 1023,1 30 -
16.12.2017 09:00:00 3,9 1,3 5 3 - - W 1022,1 - 0,0
16.12.2017 08:00:00 4,0 1,4 4 2 - - WZW 1021,6 - 0,0
16.12.2017 07:00:00 4,3 1,5 4 2 - - ZW 1020,8 15 -
16.12.2017 06:00:00 4,8 1,5 4 2 - - ONO 1020,3 - 0,0
16.12.2017 05:00:00 5,3 1,4 5 3 - - WNW 1019,7 - 0,0
16.12.2017 04:00:00 5,8 1,7 5 3 - - W 1019,4 - -
16.12.2017 03:00:00 5,8 1,7 4 2 - - NW 1018,9 - 0,0
16.12.2017 02:00:00 6,1 2,4 9 5 - - W 1018,2 - 0,0
16.12.2017 01:00:00 6,0 2,6 15 8 - - NW 1018,0 - -
16.12.2017 00:00:00 6,9 3,5 11 6 - - W 1017,7 - 0,0
15.12.2017 23:00:00 7,3 4,1 9 5 - - W 1017,6 - 0,0
15.12.2017 22:00:00 8,1 6,4 8 4 - - W 1017,2 - -
15.12.2017 21:00:00 9,0 6,8 8 4 - - W 1016,4 - 0,0
15.12.2017 20:00:00 10,6 6,9 11 6 - - W 1015,6 - 0,0
15.12.2017 19:00:00 11,8 7,1 16 9 - - WNW 1014,9 10 -
15.12.2017 18:00:00 13,8 10,8 18 10 - - WNW 1013,5 - 0,0
15.12.2017 17:00:00 15,1 13,5 9 5 - - W 1012,9 - 0,0
15.12.2017 16:00:00 15,9 13,4 11 6 - - W 1012,7 10 -
15.12.2017 15:00:00 16,1 13,2 13 7 - - W 1013,2 - 0,0
15.12.2017 14:00:00 16,5 13,2 21 11 - - W 1013,7 - 0,0
15.12.2017 13:00:00 17,2 14,1 15 8 - - WZW 1014,5 10 -
15.12.2017 12:00:00 16,0 13,5 13 7 - - WZW 1015,7 - 0,0
15.12.2017 11:00:00 15,0 13,5 16 9 - - WZW 1016,2 - 0,0
15.12.2017 10:00:00 14,0 13,5 13 7 - - WZW 1016,0 12 -
15.12.2017 09:00:00 13,1 12,9 5 3 - - ZW 1015,8 - 0,0
15.12.2017 08:00:00 12,7 12,7 4 2 - - ZW 1016,3 - 0,0
15.12.2017 07:00:00 12,4 12,2 4 2 - - WZW 1016,8 9 -
15.12.2017 06:00:00 12,1 11,6 5 3 - - WZW 1017,0 - 0,0
15.12.2017 05:00:00 12,7 11,9 4 2 - - ZW 1018,0 - 0,0
15.12.2017 04:00:00 12,8 11,7 4 2 - - WZW 1018,8 - -
15.12.2017 03:00:00 13,1 11,7 5 3 - - W 1019,0 - 0,0
15.12.2017 02:00:00 13,2 11,8 11 6 - - W 1019,1 - 0,0
15.12.2017 01:00:00 13,3 12,4 8 4 - - WZW 1019,6 - -
15.12.2017 00:00:00 13,3 12,8 8 4 - - WZW 1019,6 - 0,0
14.12.2017 23:00:00 13,1 12,6 8 4 - - ZW 1019,9 - 0,0
14.12.2017 22:00:00 13,4 12,5 5 3 - - ZW 1020,5 - -
14.12.2017 21:00:00 13,3 12,5 5 3 - - ZW 1020,9 - 0,0
14.12.2017 20:00:00 13,8 12,7 9 5 - - WZW 1021,1 - 0,0
14.12.2017 19:00:00 13,8 12,9 8 4 - - WZW 1021,0 10 -
14.12.2017 18:00:00 14,0 13,2 8 4 - - WZW 1021,2 - 0,0
14.12.2017 17:00:00 14,4 13,4 11 6 - - WZW 1021,4 - 0,2
14.12.2017 16:00:00 14,9 13,1 8 4 - - ZW 1021,3 10 -
14.12.2017 15:00:00 15,0 12,7 9 5 - - WZW 1022,0 - 0,0
14.12.2017 14:00:00 14,3 12,2 9 5 - - ZW 1023,3 - 0,0
14.12.2017 13:00:00 13,4 12,0 9 5 - - ZW 1024,5 - -
14.12.2017 12:00:00 13,1 11,8 8 4 - - ZW 1025,5 - 0,0
14.12.2017 11:00:00 12,3 11,5 8 4 - - ZZW 1025,8 - 0,0
14.12.2017 10:00:00 11,2 10,9 8 4 - - ZW 1025,9 7 -
14.12.2017 09:00:00 10,4 10,2 4 2 - - W 1025,8 - 0,0
14.12.2017 08:00:00 10,3 10,0 4 2 - - WZW 1025,6 - 0,2
14.12.2017 07:00:00 10,2 9,6 4 2 - - W 1026,0 3,5 -
14.12.2017 06:00:00 10,3 9,1 4 2 - - ZW 1026,2 - 0,0
14.12.2017 05:00:00 10,1 7,5 4 2 - - ZW 1026,7 - 0,0
14.12.2017 04:00:00 10,1 7,0 5 3 - - ZZW 1026,9 - -
14.12.2017 03:00:00 9,9 7,1 4 2 - - ZW 1027,5 - 0,0
14.12.2017 02:00:00 9,7 6,2 4 2 - - WZW 1028,0 - 0,0
14.12.2017 01:00:00 9,3 6,0 2 1 - - ZW 1028,5 - -
14.12.2017 00:00:00 8,9 5,8 2 1 - - ZZW 1028,6 - 0,0
13.12.2017 23:00:00 9,4 5,8 2 1 - - W 1028,8 - 0,0
13.12.2017 22:00:00 10,1 6,8 4 2 - - WZW 1028,6 - -
13.12.2017 21:00:00 11,1 7,0 5 3 - - Z 1028,5 - 0,0
13.12.2017 20:00:00 11,3 7,2 4 2 - - Z 1028,3 - 0,0
13.12.2017 19:00:00 11,8 6,3 0 0 - - N 1028,3 15 -
13.12.2017 18:00:00 12,7 6,3 2 1 - - Z 1028,1 - 0,0
13.12.2017 17:00:00 13,4 5,0 4 2 - - W 1028,2 - 0,0
13.12.2017 16:00:00 13,8 5,7 4 2 - - W 1028,0 20 -
13.12.2017 15:00:00 12,7 5,6 8 4 - - NNW 1028,5 - 0,0
13.12.2017 14:00:00 12,3 5,2 4 2 - - NW 1028,9 - 0,0
13.12.2017 13:00:00 10,9 5,4 4 2 - - ZZO 1029,7 20 -
13.12.2017 12:00:00 7,9 5,0 8 4 - - OZO 1030,7 - 0,0
13.12.2017 11:00:00 4,4 3,7 5 3 - - NO 1031,8 - 0,0
13.12.2017 10:00:00 1,4 1,4 4 2 - - NNW 1030,6 10 -
13.12.2017 09:00:00 0,4 0,4 0 0 - - N 1029,8 - 0,0
13.12.2017 08:00:00 0,4 0,3 4 2 - - OZO 1029,4 - 0,0
13.12.2017 07:00:00 0,8 0,4 2 1 - - OZO 1029,1 10 -
13.12.2017 06:00:00 1,3 0,7 2 1 - - NNW 1028,9 - 0,0
13.12.2017 05:00:00 3,0 2,1 5 3 - - Z 1028,3 - 0,0
13.12.2017 04:00:00 2,0 1,6 4 2 - - OZO 1028,5 - -
13.12.2017 03:00:00 3,0 2,0 2 1 - - WZW 1027,2 - 0,0
13.12.2017 02:00:00 3,2 1,7 4 2 - - W 1027,4 - 0,0
13.12.2017 01:00:00 4,6 2,3 2 1 - - WZW 1027,1 - -
13.12.2017 00:00:00 5,1 2,6 4 2 - - WZW 1026,6 - 0,0
12.12.2017 23:00:00 5,4 2,4 4 2 - - W 1025,8 - 0,0
12.12.2017 22:00:00 6,5 2,6 2 1 - - ZW 1024,9 - -
12.12.2017 21:00:00 7,8 2,3 4 2 - - WZW 1024,4 - 0,0
12.12.2017 20:00:00 6,8 2,9 4 2 - - WZW 1023,9 - 0,0
12.12.2017 19:00:00 9,2 3,2 5 3 - - ZW 1022,9 12 -
12.12.2017 18:00:00 10,8 2,6 4 2 - - W 1022,3 - 0,0
12.12.2017 17:00:00 12,0 1,6 9 5 - - N 1021,6 - 0,0
12.12.2017 16:00:00 12,5 1,8 9 5 - - NNO 1021,2 20 -
12.12.2017 15:00:00 12,2 2,1 9 5 - - NNW 1020,4 - 0,0
12.12.2017 14:00:00 11,8 2,0 5 3 - - NW 1020,3 - 0,0
12.12.2017 13:00:00 10,4 3,0 8 4 - - WNW 1020,9 15 -
12.12.2017 12:00:00 9,1 2,6 9 5 - - NNW 1021,0 - 0,0
12.12.2017 11:00:00 8,2 1,8 5 3 - - ZZW 1020,8 - 0,0
12.12.2017 10:00:00 5,2 2,2 2 1 - - ZW 1020,1 12 -
12.12.2017 09:00:00 3,1 0,7 4 2 - - ZO 1019,2 - 0,0
12.12.2017 08:00:00 3,7 0,7 8 4 - - Z 1017,9 - 0,0
12.12.2017 07:00:00 4,5 0,8 4 2 - - ZW 1016,7 8 -
12.12.2017 06:00:00 4,3 0,8 4 2 - - WZW 1015,4 - 0,0
12.12.2017 05:00:00 4,3 0,6 9 5 - - NW 1015,0 - 0,0
12.12.2017 04:00:00 3,8 1,0 15 8 - - NNW 1014,6 - -
12.12.2017 03:00:00 4,8 1,1 15 8 - - NW 1013,5 - 0,0
12.12.2017 02:00:00 5,4 1,3 16 9 - - NW 1012,8 - 0,0
12.12.2017 01:00:00 5,4 2,0 16 9 - - WNW 1012,1 - -
12.12.2017 00:00:00 5,6 3,4 22 12 - - NW 1011,5 - 0,0
11.12.2017 23:00:00 6,2 4,4 11 6 - - W 1010,3 - 0,0
11.12.2017 22:00:00 6,9 4,7 13 7 - - W 1008,7 - -
11.12.2017 21:00:00 7,6 5,2 16 9 - - W 1007,7 - 0,0
11.12.2017 20:00:00 8,4 5,5 11 6 - - W 1006,2 - 0,0
11.12.2017 19:00:00 8,9 5,6 15 8 - - W 1005,0 25 -
11.12.2017 18:00:00 10,0 6,0 13 7 - - W 1003,5 - 0,0
11.12.2017 17:00:00 10,8 7,1 22 12 - - W 1002,4 - 0,4
11.12.2017 16:00:00 12,6 6,2 26 14 - - W 1001,5 15 -
11.12.2017 15:00:00 13,2 7,0 18 10 - - W 1001,2 - 0,0
11.12.2017 14:00:00 13,6 6,2 18 10 - - W 1001,6 - 0,0
11.12.2017 13:00:00 12,8 6,2 16 9 - - W 1002,5 20 -
11.12.2017 12:00:00 11,7 6,0 15 8 - - W 1003,0 - 0,0
11.12.2017 11:00:00 10,3 7,0 15 8 - - W 1002,8 - 0,0
11.12.2017 10:00:00 8,8 6,9 11 6 - - W 1002,1 15 -
11.12.2017 09:00:00 8,0 6,1 18 10 - - W 1000,8 - 0,0
11.12.2017 08:00:00 8,0 7,1 11 6 - - WZW 1000,2 - 0,0
11.12.2017 07:00:00 8,2 6,7 18 10 - - WZW 999,7 8 -
11.12.2017 06:00:00 8,4 7,2 11 6 - - WZW 998,9 - 2,0
11.12.2017 05:00:00 8,7 7,3 18 10 - - W 999,3 - 2,0
11.12.2017 04:00:00 10,7 9,6 28 15 - - WNW 998,7 - -
11.12.2017 03:00:00 10,9 10,3 22 12 83 45 W 997,7 - 10,0
11.12.2017 02:00:00 14,4 12,9 28 15 - - ZZW 995,9 - 2,0
11.12.2017 01:00:00 14,4 12,9 22 12 - - ZZW 999,0 - -
11.12.2017 00:00:00 14,6 12,8 18 10 - - ZZW 1001,4 - 0,4
10.12.2017 23:00:00 14,6 12,8 18 10 - - ZZW 1003,5 - 0,0
10.12.2017 22:00:00 14,7 12,2 21 11 - - ZZW 1005,6 - -
10.12.2017 21:00:00 14,4 11,9 16 9 - - ZZW 1007,1 - 0,0
10.12.2017 20:00:00 14,5 11,8 13 7 - - ZZW 1009,1 - 0,0
10.12.2017 19:00:00 14,9 11,5 13 7 - - ZW 1010,9 15 -
10.12.2017 18:00:00 14,7 12,0 9 5 - - ZW 1012,1 - 0,2
10.12.2017 17:00:00 15,4 12,3 13 7 - - WZW 1013,0 - 0,0
10.12.2017 16:00:00 15,6 12,5 11 6 - - ZW 1014,0 20 -
10.12.2017 15:00:00 14,6 13,1 9 5 - - ZW 1016,1 - 0,0
10.12.2017 14:00:00 15,4 13,1 11 6 - - ZW 1017,6 - 0,0
10.12.2017 13:00:00 15,3 12,6 9 5 - - ZW 1019,8 15 -
10.12.2017 12:00:00 14,8 12,3 9 5 - - ZW 1020,6 - 0,0

tt = temperatuur
td = dauwpunt
ff = windsnelheid
fx = windstoten
dd = windrichting
ppp = luchtdruk
vv = zicht
rr = neerslag

Weerstations in de omgeving